SHT15C EGJB-EGLL

Flight info

Callsign SHT15C
Flight time 0h 36m
Altitude 19000
Route ORIST1F ORIST L982 ROXOG ROXOG1H
Aircraft A319/M-SDE3FGIJ1KRWXY/LB1

Departure

Time 2026-04-25 12:53
Airport Guernsey Airport (EGJB)

Arrival

Time 2026-04-25 13:30
Airport London Heathrow Airport (EGLL)
Time Latitude Longitude Altitude Speed Heading
2026-04-25 12:20 49.43272 -2.59563 328 ft 0 kts 177°
2026-04-25 12:44 49.43302 -2.59564 328 ft 4 kts 178°
2026-04-25 12:45 49.43326 -2.59566 327 ft 2 kts 178°
2026-04-25 12:45 49.43350 -2.59561 328 ft 4 kts 215°
2026-04-25 12:45 49.43365 -2.59498 329 ft 0 kts 267°
2026-04-25 12:48 49.43365 -2.59519 328 ft 5 kts 267°
2026-04-25 12:48 49.43362 -2.59597 327 ft 10 kts 266°
2026-04-25 12:48 49.43356 -2.59722 328 ft 14 kts 263°
2026-04-25 12:48 49.43343 -2.59890 321 ft 20 kts 267°
2026-04-25 12:49 49.43336 -2.60157 302 ft 28 kts 268°
2026-04-25 12:49 49.43329 -2.60438 293 ft 27 kts 267°
2026-04-25 12:49 49.43341 -2.60731 299 ft 27 kts 280°
2026-04-25 12:49 49.43365 -2.60994 311 ft 19 kts 269°
2026-04-25 12:50 49.43359 -2.61171 312 ft 11 kts 266°
2026-04-25 12:50 49.43358 -2.61226 313 ft 0 kts 273°
2026-04-25 12:52 49.43358 -2.61227 313 ft 0 kts 273°
2026-04-25 12:52 49.43364 -2.61254 313 ft 5 kts 295°
2026-04-25 12:52 49.43390 -2.61305 315 ft 7 kts 311°
2026-04-25 12:52 49.43440 -2.61356 316 ft 10 kts 355°
2026-04-25 12:53 49.43469 -2.61254 314 ft 20 kts 86°
2026-04-25 12:53 49.43484 -2.60621 310 ft 103 kts 88°
2026-04-25 12:53 49.43520 -2.59222 585 ft 140 kts 88°
2026-04-25 12:53 49.43567 -2.57730 1348 ft 140 kts 86°
2026-04-25 12:54 49.43616 -2.56204 1907 ft 149 kts 88°
2026-04-25 12:54 49.43661 -2.54494 2243 ft 172 kts 88°
2026-04-25 12:54 49.43742 -2.52542 2590 ft 195 kts 80°
2026-04-25 12:54 49.44403 -2.50581 2936 ft 222 kts 50°
2026-04-25 12:55 49.45108 -2.49364 3283 ft 239 kts 46°
2026-04-25 12:55 49.46311 -2.47421 3834 ft 262 kts 45°
2026-04-25 12:55 49.48014 -2.44661 3997 ft 267 kts 46°
2026-04-25 12:55 49.49289 -2.42588 4007 ft 267 kts 45°
2026-04-25 12:56 49.50570 -2.40499 4178 ft 271 kts 45°
2026-04-25 12:56 49.51864 -2.38375 5188 ft 272 kts 45°
2026-04-25 12:56 49.53146 -2.36248 6159 ft 276 kts 46°
2026-04-25 12:56 49.54464 -2.34071 7137 ft 279 kts 46°
2026-04-25 12:57 49.55810 -2.31880 8082 ft 283 kts 46°
2026-04-25 12:57 49.57180 -2.29653 9014 ft 288 kts 45°
2026-04-25 12:57 49.58571 -2.27382 9927 ft 293 kts 45°
2026-04-25 12:57 49.59998 -2.25057 10549 ft 308 kts 45°
2026-04-25 12:58 49.61528 -2.22565 10857 ft 332 kts 46°
2026-04-25 12:58 49.63128 -2.19965 11415 ft 343 kts 46°
2026-04-25 12:58 49.64788 -2.17289 12163 ft 348 kts 44°
2026-04-25 12:58 49.66734 -2.15058 12908 ft 351 kts 30°
2026-04-25 12:59 49.68845 -2.13108 13692 ft 355 kts 29°
2026-04-25 12:59 49.70978 -2.11165 14395 ft 359 kts 29°
2026-04-25 12:59 49.73143 -2.09202 15069 ft 362 kts 28°
2026-04-25 12:59 49.75332 -2.07217 15732 ft 367 kts 29°
2026-04-25 13:00 49.76822 -2.05859 16182 ft 369 kts 29°
2026-04-25 13:00 49.78293 -2.04514 16636 ft 371 kts 29°
2026-04-25 13:00 49.82028 -2.01084 17754 ft 378 kts 29°
2026-04-25 13:00 49.84300 -1.98994 18420 ft 381 kts 28°
2026-04-25 13:01 49.86594 -1.96886 18960 ft 386 kts 29°
2026-04-25 13:01 49.88905 -1.94764 19147 ft 387 kts 28°
2026-04-25 13:01 49.91200 -1.92657 19201 ft 390 kts 28°
2026-04-25 13:01 49.93540 -1.90505 19209 ft 391 kts 29°
2026-04-25 13:02 49.95912 -1.88318 19221 ft 391 kts 29°
2026-04-25 13:02 49.98221 -1.86180 19215 ft 392 kts 29°
2026-04-25 13:02 50.00581 -1.84042 19215 ft 391 kts 27°
2026-04-25 13:02 50.02967 -1.81990 19217 ft 391 kts 26°
2026-04-25 13:03 50.05372 -1.79982 19220 ft 391 kts 26°
2026-04-25 13:03 50.07773 -1.78003 19220 ft 390 kts 26°
2026-04-25 13:03 50.10151 -1.76045 19220 ft 390 kts 26°
2026-04-25 13:03 50.12580 -1.74033 19220 ft 390 kts 26°
2026-04-25 13:04 50.14943 -1.72059 19223 ft 391 kts 26°
2026-04-25 13:04 50.17344 -1.70041 19223 ft 391 kts 26°
2026-04-25 13:04 50.19732 -1.68030 19230 ft 391 kts 26°
2026-04-25 13:04 50.22130 -1.66009 19229 ft 391 kts 26°
2026-04-25 13:05 50.24523 -1.63989 19228 ft 391 kts 26°
2026-04-25 13:05 50.26914 -1.61962 19227 ft 391 kts 26°
2026-04-25 13:05 50.29304 -1.59931 19226 ft 391 kts 26°
2026-04-25 13:05 50.31663 -1.57925 19226 ft 391 kts 26°
2026-04-25 13:06 50.34052 -1.55895 19228 ft 391 kts 26°
2026-04-25 13:06 50.36444 -1.53860 19227 ft 391 kts 26°
2026-04-25 13:06 50.38835 -1.51825 19227 ft 391 kts 26°
2026-04-25 13:06 50.41231 -1.49788 19236 ft 391 kts 26°
2026-04-25 13:07 50.43621 -1.47753 19236 ft 391 kts 26°
2026-04-25 13:07 50.46013 -1.45712 19235 ft 391 kts 26°
2026-04-25 13:07 50.48405 -1.43657 19235 ft 391 kts 26°
2026-04-25 13:07 50.50791 -1.41608 19232 ft 391 kts 26°
2026-04-25 13:08 50.53179 -1.39558 19232 ft 391 kts 26°
2026-04-25 13:08 50.55474 -1.37352 19242 ft 391 kts 31°
2026-04-25 13:08 50.57735 -1.34978 19245 ft 390 kts 32°
2026-04-25 13:08 50.59996 -1.32590 19247 ft 390 kts 32°
2026-04-25 13:09 50.62244 -1.30213 19245 ft 390 kts 32°
2026-04-25 13:09 50.64501 -1.27824 19246 ft 389 kts 32°
2026-04-25 13:09 50.66750 -1.25448 19244 ft 389 kts 32°
2026-04-25 13:09 50.68998 -1.23079 19243 ft 389 kts 32°
2026-04-25 13:10 50.70493 -1.21503 19239 ft 388 kts 32°
2026-04-25 13:10 50.72735 -1.19138 19238 ft 387 kts 32°
2026-04-25 13:10 50.74936 -1.16811 19007 ft 377 kts 32°
2026-04-25 13:10 50.77798 -1.13777 18430 ft 371 kts 32°
2026-04-25 13:11 50.79929 -1.11514 17926 ft 367 kts 32°
2026-04-25 13:11 50.82041 -1.09270 17390 ft 364 kts 32°
2026-04-25 13:11 50.83459 -1.07766 17034 ft 362 kts 32°
2026-04-25 13:11 50.85518 -1.05584 16517 ft 359 kts 32°
2026-04-25 13:12 50.87586 -1.03394 16008 ft 356 kts 32°
2026-04-25 13:12 50.89643 -1.01222 15509 ft 353 kts 32°
2026-04-25 13:12 50.91748 -0.99284 15016 ft 349 kts 22°
2026-04-25 13:12 50.93249 -0.98244 14680 ft 347 kts 21°
2026-04-25 13:13 50.96180 -0.96285 14045 ft 343 kts 21°
2026-04-25 13:13 50.98374 -0.94827 13512 ft 341 kts 21°
2026-04-25 13:13 51.00553 -0.93386 13233 ft 339 kts 21°
2026-04-25 13:13 51.02739 -0.91949 13220 ft 340 kts 21°
2026-04-25 13:14 51.04926 -0.90513 13065 ft 340 kts 21°
2026-04-25 13:14 51.07109 -0.89080 12796 ft 338 kts 21°
2026-04-25 13:14 51.09284 -0.87652 12539 ft 336 kts 21°
2026-04-25 13:14 51.11444 -0.86235 12285 ft 335 kts 21°
2026-04-25 13:15 51.13597 -0.84823 12028 ft 333 kts 21°
2026-04-25 13:15 51.15739 -0.83420 11770 ft 332 kts 21°
2026-04-25 13:15 51.17874 -0.82016 11527 ft 330 kts 22°
2026-04-25 13:15 51.19813 -0.80081 11072 ft 330 kts 41°
2026-04-25 13:16 51.21196 -0.77183 10617 ft 329 kts 63°
2026-04-25 13:16 51.22110 -0.73965 10482 ft 316 kts 65°
2026-04-25 13:16 51.23005 -0.70828 10358 ft 305 kts 64°
2026-04-25 13:16 51.23879 -0.67794 10147 ft 298 kts 64°
2026-04-25 13:17 51.24739 -0.64819 9923 ft 295 kts 64°
2026-04-25 13:17 51.25606 -0.61818 9476 ft 296 kts 64°
2026-04-25 13:17 51.26463 -0.58853 9127 ft 293 kts 64°
2026-04-25 13:17 51.27311 -0.55903 8740 ft 292 kts 64°
2026-04-25 13:18 51.28154 -0.52953 8377 ft 290 kts 64°
2026-04-25 13:18 51.28979 -0.50060 8209 ft 281 kts 64°
2026-04-25 13:18 51.29770 -0.47286 8217 ft 267 kts 64°
2026-04-25 13:18 51.30491 -0.44672 8218 ft 255 kts 70°
2026-04-25 13:19 51.30964 -0.41881 8222 ft 268 kts 76°
2026-04-25 13:19 51.31380 -0.39049 8216 ft 256 kts 76°
2026-04-25 13:19 51.31777 -0.36294 8219 ft 253 kts 76°
2026-04-25 13:19 51.32045 -0.34440 8218 ft 252 kts 76°
2026-04-25 13:20 51.32567 -0.30806 7986 ft 252 kts 76°
2026-04-25 13:20 51.32957 -0.28078 7728 ft 251 kts 76°
2026-04-25 13:20 51.33344 -0.25373 7482 ft 249 kts 76°
2026-04-25 13:20 51.33732 -0.22675 7230 ft 248 kts 76°
2026-04-25 13:21 51.34118 -0.19994 6992 ft 247 kts 76°
2026-04-25 13:21 51.34501 -0.17320 6751 ft 246 kts 76°
2026-04-25 13:21 51.34883 -0.14656 6502 ft 245 kts 76°
2026-04-25 13:21 51.35264 -0.12003 6244 ft 244 kts 76°
2026-04-25 13:22 51.35646 -0.09357 5987 ft 243 kts 76°
2026-04-25 13:22 51.36025 -0.06720 5728 ft 243 kts 76°
2026-04-25 13:22 51.36403 -0.04096 5501 ft 241 kts 76°
2026-04-25 13:23 51.37567 0.00805 5258 ft 238 kts 43°
2026-04-25 13:23 51.38979 0.02097 5128 ft 235 kts 11°
2026-04-25 13:23 51.40581 0.01972 5004 ft 232 kts 338°
2026-04-25 13:23 51.41870 0.00485 4874 ft 230 kts 308°
2026-04-25 13:24 51.42788 -0.01621 4744 ft 231 kts 302°
2026-04-25 13:24 51.43647 -0.03798 4612 ft 231 kts 301°
2026-04-25 13:24 51.44498 -0.05990 4476 ft 232 kts 301°
2026-04-25 13:24 51.45347 -0.08195 4348 ft 231 kts 301°
2026-04-25 13:25 51.46174 -0.10354 4187 ft 223 kts 301°
2026-04-25 13:25 51.46972 -0.12441 3953 ft 216 kts 301°
2026-04-25 13:25 51.47666 -0.14552 3633 ft 214 kts 286°
2026-04-25 13:25 51.47813 -0.16900 3347 ft 211 kts 270°
2026-04-25 13:26 51.47807 -0.19236 3061 ft 209 kts 270°
2026-04-25 13:26 51.47804 -0.21530 2785 ft 206 kts 270°
2026-04-25 13:26 51.47802 -0.23825 2505 ft 204 kts 270°
2026-04-25 13:26 51.47799 -0.26088 2239 ft 201 kts 270°
2026-04-25 13:27 51.47796 -0.28287 1972 ft 195 kts 270°
2026-04-25 13:27 51.47793 -0.30425 1709 ft 188 kts 270°
2026-04-25 13:27 51.47790 -0.32470 1450 ft 177 kts 270°
2026-04-25 13:27 51.47786 -0.34380 1221 ft 164 kts 270°
2026-04-25 13:28 51.47783 -0.36139 1012 ft 152 kts 270°
2026-04-25 13:28 51.47780 -0.37233 879 ft 145 kts 270°
2026-04-25 13:28 51.47775 -0.39353 627 ft 140 kts 269°
2026-04-25 13:28 51.47769 -0.40888 452 ft 138 kts 268°
2026-04-25 13:29 51.47769 -0.42426 261 ft 138 kts 268°
2026-04-25 13:29 51.47771 -0.43950 92 ft 133 kts 268°
2026-04-25 13:29 51.47761 -0.45314 86 ft 109 kts 269°
2026-04-25 13:30 51.47754 -0.47086 88 ft 42 kts 270°
2026-04-25 13:30 51.47727 -0.47367 88 ft 21 kts 227°
2026-04-25 13:30 51.47635 -0.47393 88 ft 13 kts 180°
2026-04-25 13:31 51.47585 -0.47645 88 ft 17 kts 274°
2026-04-25 13:31 51.47581 -0.47849 90 ft 21 kts 266°
2026-04-25 13:31 51.47578 -0.48108 88 ft 26 kts 270°
2026-04-25 13:31 51.47579 -0.48322 86 ft 19 kts 270°
2026-04-25 13:32 51.47548 -0.48477 87 ft 16 kts 189°
2026-04-25 13:32 51.47435 -0.48477 86 ft 12 kts 178°
2026-04-25 13:32 51.47406 -0.48504 89 ft 5 kts 259°
2026-04-25 13:32 51.47400 -0.48575 86 ft 4 kts 269°
2026-04-25 13:33 51.47400 -0.48589 86 ft 0 kts 269°